Weather History for Sault Ste Marie, MI

Change the Weather History Date:

Monday, December 10, 2012

  Actual Average Record
Temperature  
Mean Temperature 17 °F 24 °F  
Max Temperature 23 °F 30 °F 47 °F (1911)
Min Temperature 10 °F 18 °F -14 °F (1958)
Degree Days  
Heating Degree Days 48 41  
Month to date heating degree days 347 390  
Since 1 July heating degree days 2135 2322  
Moisture  
Dew Point 10 °F    
Average Humidity 71    
Maximum Humidity 84    
Minimum Humidity 57    
Precipitation  
Precipitation 0.04 in 0.10 in 1.36 in (1995)
Month to date precipitation 1.07 1.01  
Year to date precipitation 27.28 31.17  
Snow  
Snow 1.20 in 1.10 in 26.60 in (1995)
Month to date snowfall 6.5 10.0  
Since 1 July snowfall 29.5 26.7  
Snow Depth 5.00 in    
Sea Level Pressure  
Sea Level Pressure 29.75 in    
Wind  
Wind Speed 7 mph (NNE)    
Max Wind Speed 14 mph    
Max Gust Speed 22 mph    
Visibility 6 miles    
Events Snow    
T = Trace of Precipitation, MM = Missing Value Source: NWS Daily Summary

Daily Weather History Graph

Daily Weather History Graph

Search for Another Location

Airport:

Trip Planner

Search our weather history database for the weather conditions in past years. The results will help you decide how hot, cold, wet, or windy it might be!

Date:

Astronomy

Dec. 10, 2012 Rise Set
Actual Time 8:10 AM EST 4:50 PM EST
Civil Twilight 7:35 AM EST 5:25 PM EST
Nautical Twilight 6:57 AM EST 6:03 PM EST
Astronomical Twilight 6:20 AM EST 6:39 PM EST
Moon 4:46 AM EST (12/10) 2:44 PM EST (12/10)
Length of Visible Light 9h 49m
Length of Day
8h 39m
Waning Crescent, 10% of the Moon is Illuminated
Dec 10
Waning Crescent
Dec 13
New
Dec 20
First Quarter
Dec 28
Full
Jan 4
Last Quarter

Hourly Weather History & Observations

Time (EST) Temp. Windchill Dew Point Humidity Pressure Visibility Wind Dir Wind Speed Gust Speed Precip Events Conditions
12:48 AM 19.9 °F 8.6 °F 15.1 °F 81% 29.79 in 2.0 mi ENE 10.4 mph 19.6 mph 0.02 in Snow Light Snow
12:55 AM 19.9 °F 8.6 °F 15.1 °F 81% 29.81 in 2.5 mi ENE 10.4 mph 19.6 mph 0.02 in Snow Light Snow
1:19 AM 19.9 °F 7.9 °F 14.0 °F 78% 29.76 in 3.0 mi East 11.5 mph 19.6 mph 0.01 in Snow Light Snow
1:35 AM 19.0 °F 6.1 °F 14.0 °F 81% 29.74 in 2.5 mi ENE 12.7 mph 20.7 mph 0.01 in Snow Light Snow
1:52 AM 19.4 °F 8.6 °F 14.0 °F 80% 29.74 in 4.0 mi ENE 9.2 mph - 0.01 in Snow Light Snow
1:55 AM 19.9 °F 7.3 °F 14.0 °F 78% 29.77 in 5.0 mi ENE 12.7 mph 19.6 mph 0.01 in Snow Light Snow
2:55 AM 19.0 °F 8.2 °F 12.9 °F 77% 29.74 in 4.0 mi ENE 9.2 mph 17.3 mph 0.00 in Snow Light Snow
3:55 AM 19.0 °F 8.2 °F 12.0 °F 74% 29.74 in 2.5 mi ENE 9.2 mph - 0.00 in Snow Light Snow
4:03 AM 19.0 °F 8.2 °F 12.0 °F 74% 29.70 in 3.0 mi NE 9.2 mph - 0.00 in Snow Light Snow
4:25 AM 19.0 °F 11.1 °F 12.0 °F 74% 29.68 in 2.5 mi NE 5.8 mph - 0.00 in Snow Light Snow
4:43 AM 18.0 °F 8.7 °F 12.0 °F 78% 29.68 in 2.0 mi NE 6.9 mph - 0.01 in Snow Light Snow
4:51 AM 17.6 °F 8.2 °F 12.2 °F 79% 29.68 in 1.8 mi NE 6.9 mph - 0.01 in Snow Light Snow
4:55 AM 18.0 °F 9.8 °F 12.0 °F 78% 29.71 in 1.8 mi NE 5.8 mph - 0.01 in Snow Light Snow
5:14 AM 18.0 °F 8.7 °F 12.0 °F 78% 29.67 in 2.0 mi NE 6.9 mph - 0.00 in Snow Light Snow
5:26 AM 18.0 °F 11.1 °F 12.9 °F 81% 29.67 in 3.0 mi NNE 4.6 mph - 0.00 in Snow Light Snow
5:55 AM 18.0 °F 8.7 °F 12.0 °F 78% 29.70 in 3.0 mi NE 6.9 mph - 0.01 in Snow Light Snow
6:55 AM 17.1 °F 7.6 °F 10.0 °F 74% 29.69 in 5.0 mi NNE 6.9 mph - 0.00 in Snow Light Snow
7:55 AM 16.0 °F 6.3 °F 9.0 °F 74% 29.69 in 6.0 mi NNE 6.9 mph - 0.00 in Snow Light Snow
8:26 AM 16.0 °F 8.8 °F 9.0 °F 74% 29.67 in 4.0 mi North 4.6 mph - 0.00 in Snow Light Snow
8:53 AM 15.8 °F 6.1 °F 8.6 °F 73% 29.68 in 10.0 mi NNE 6.9 mph - 0.00 in   Mostly Cloudy
8:55 AM 16.0 °F 8.8 °F 8.1 °F 71% 29.71 in 10.0 mi NNE 4.6 mph - 0.00 in   Mostly Cloudy
9:55 AM 17.1 °F 6.6 °F 8.1 °F 68% 29.73 in 10.0 mi North 8.1 mph - 0.00 in   Overcast
10:55 AM 17.1 °F 6.6 °F 7.0 °F 65% 29.74 in 10.0 mi North 8.1 mph - 0.00 in   Overcast
11:55 AM 19.0 °F 11.1 °F 9.0 °F 65% 29.73 in 10.0 mi NNW 5.8 mph - 0.00 in   Overcast
12:23 PM 19.9 °F 11.1 °F 9.0 °F 62% 29.69 in 10.0 mi NW 6.9 mph - 0.00 in   Scattered Clouds
12:55 PM 21.0 °F 10.6 °F 9.0 °F 60% 29.72 in 10.0 mi NNW 9.2 mph - 0.00 in   Clear
1:55 PM 21.9 °F 11.0 °F 10.0 °F 60% 29.73 in 10.0 mi NNW 10.4 mph - N/A   Partly Cloudy
2:55 PM 23.0 °F 13.1 °F 10.0 °F 58% 29.75 in 10.0 mi NW 9.2 mph - N/A   Clear
3:55 PM 23.0 °F 12.4 °F 10.9 °F 60% 29.77 in 10.0 mi NW 10.4 mph - N/A   Partly Cloudy
4:55 PM 23.0 °F 13.1 °F 10.9 °F 60% 29.77 in 10.0 mi NNW 9.2 mph - N/A   Clear
5:55 PM 21.0 °F 11.4 °F 10.0 °F 63% 29.81 in 10.0 mi North 8.1 mph - N/A   Clear
6:55 PM 19.0 °F 10.0 °F 9.0 °F 65% 29.83 in 10.0 mi NNE 6.9 mph - N/A   Clear
7:55 PM 17.1 °F 7.6 °F 8.1 °F 68% 29.86 in 10.0 mi North 6.9 mph - N/A   Clear
8:55 PM 15.1 °F 9.4 °F 7.0 °F 70% 29.88 in 10.0 mi North 3.5 mph - N/A   Clear
9:55 PM 12.0 °F - 5.0 °F 73% 29.89 in 10.0 mi Calm Calm - 0.00 in   Clear
10:55 PM 10.0 °F - 3.9 °F 76% 29.92 in 10.0 mi Calm Calm - N/A   Clear
11:55 PM 10.0 °F 3.6 °F 5.0 °F 80% 29.93 in 10.0 mi ENE 3.5 mph - 0.00 in   Clear